EW9135 Weather Reports


time (UTC)temp
C
wind
direction
speed
KPH
gust
KPH
rain 1hr
cm
rain 24hr
cm
rain mn
cm
humidity
%
barometer
mb
20260901052144 16 267 0.0 0.0 0.00 0.03 0.03 31 1019.7
20260901051638 16 226 0.0 0.0 0.00 0.03 0.03 31 1020.1
20260901051132 16 288 0.0 0.0 0.00 0.03 0.03 32 1020.1
20260901050626 16 228 0.0 1.6 0.00 0.03 0.03 32 1020.1
20260901050121 16 268 0.0 1.6 0.00 0.03 0.03 32 1020.1
20260901045619 16 314 0.0 0.0 0.00 0.03 0.03 32 1020.1
20260901045614 16 241 0.0 0.0 0.00 0.03 0.03 32 1020.1
20260901044605 16 223 0.0 0.0 0.00 0.03 0.03 31 1020.1
20260901044100 16 240 0.0 0.0 0.00 0.03 0.03 31 1019.7
20260901043554 16 281 0.0 1.6 0.00 0.03 0.03 31 1019.7
20260901043549 16 274 0.0 1.6 0.00 0.03 0.03 31 1019.7
20260901042543 16 309 0.0 1.6 0.00 0.03 0.03 31 1020.1
20260901042038 16 253 0.0 1.6 0.00 0.03 0.03 31 1019.7
20260901041532 16 313 0.0 0.0 0.00 0.03 0.03 31 1019.7
20260901041026 16 183 0.0 0.0 0.00 0.03 0.03 31 1019.7
20260901040520 16 227 0.0 0.0 0.00 0.03 0.03 31 1019.7
20260901040015 17 156 0.0 0.0 0.00 0.03 0.03 31 1019.7
20260901040010 17 173 0.0 1.6 0.00 0.03 0.03 31 1019.7
20260901035004 17 198 0.0 1.6 0.00 0.03 0.03 30 1019.4
20260901034458 17 249 0.0 0.0 0.00 0.03 0.03 29 1019.7
20260901033953 17 299 0.0 0.0 0.00 0.03 0.03 30 1019.4
20260901033447 17 288 0.0 0.0 0.00 0.03 0.03 30 1019.4
20260901032943 17 171 0.0 0.0 0.00 0.03 0.03 29 1019.1
20260901032438 17 243 0.0 0.0 0.00 0.03 0.03 29 1019.1
20260901031931 18 320 0.0 0.0 0.00 0.03 0.03 29 1019.1
20260901031426 18 308 0.0 0.0 0.00 0.03 0.03 29 1019.1
20260901030920 18 184 0.0 1.6 0.00 0.03 0.03 32 1019.1
20260901030415 18 232 0.0 1.6 0.00 0.03 0.03 32 1018.7
20260901025910 18 255 0.0 0.0 0.00 0.03 0.03 32 1019.1
20260901025405 18 288 0.0 0.0 0.00 0.03 0.03 32 1018.7
20260901025400 18 198 0.0 0.0 0.00 0.03 0.03 31 1018.4
20260901024352 19 210 0.0 0.0 0.00 0.03 0.03 31 1018.7
20260901023849 19 231 0.0 0.0 0.00 0.03 0.03 30 1018.7
20260901023843 19 278 0.0 0.0 0.00 0.03 0.03 29 1018.7
20260901022836 19 181 0.0 0.0 0.00 0.03 0.03 29 1018.7
20260901022330 20 203 0.0 0.0 0.00 0.03 0.03 29 1018.7
20260901021826 20 277 0.0 0.0 0.00 0.03 0.03 28 1018.7
20260901021319 20 238 0.0 1.6 0.00 0.03 0.03 28 1018.4
20260901020814 20 273 0.0 1.6 0.00 0.03 0.03 28 1018.4
20260901020309 20 242 0.0 1.6 0.00 0.03 0.03 26 1018.7
20260901015804 20 229 0.0 1.6 0.00 0.03 0.03 26 1018.7
20260901015259 21 259 0.0 1.6 0.00 0.03 0.03 25 1018.7
20260901014752 21 232 0.0 1.6 0.00 0.03 0.03 25 1018.7
20260901014246 21 249 0.0 1.6 0.00 0.03 0.03 25 1018.4
20260901013740 21 132 0.0 1.6 0.00 0.03 0.03 25 1018.4
20260901013237 21 242 0.0 0.0 0.00 0.03 0.03 23 1018.7
20260901013232 21 193 0.0 0.0 0.00 0.03 0.03 22 1018.4
20260901012726 21 229 0.0 1.6 0.00 0.03 0.03 22 1018.4
20260901011718 22 283 0.0 1.6 0.00 0.03 0.03 22 1018.4
20260901011213 22 219 0.0 1.6 0.00 0.03 0.03 21 1018.4
20260901010708 22 258 0.0 3.2 0.00 0.03 0.03 21 1018.4
20260901010202 22 222 0.0 3.2 0.00 0.03 0.03 21 1018.4
20260901005657 22 225 0.0 3.2 0.00 0.03 0.03 21 1018.0
20260901005151 22 185 0.0 3.2 0.00 0.03 0.03 20 1018.0
20260901004645 22 295 0.0 1.6 0.00 0.03 0.03 20 1018.0
20260901004140 22 316 0.0 1.6 0.00 0.03 0.03 20 1018.0
20260901003634 22 293 0.0 0.0 0.00 0.03 0.03 19 1018.0
20260901003130 23 215 0.0 0.0 0.00 0.03 0.03 19 1018.0
20260901002623 23 283 0.0 0.0 0.00 0.03 0.03 19 1018.0
20260901002117 23 302 0.0 3.2 0.00 0.03 0.03 19 1018.0
20260901001613 23 226 0.0 3.2 0.00 0.03 0.03 22 1018.0
20260901001107 23 265 0.0 1.6 0.00 0.03 0.03 21 1018.0
20260901000601 23 233 0.0 1.6 0.00 0.03 0.03 18 1018.0
20260901000055 23 4 0.0 1.6 0.00 0.03 0.03 16 1018.0
20260831235550 23 283 0.0 1.6 0.00 0.03 0.03 16 1018.4
20260831235045 23 253 0.0 1.6 0.00 0.03 0.03 16 1018.4
20260831234539 24 209 0.0 3.2 0.00 0.03 0.03 14 1018.0
20260831234034 24 232 0.0 3.2 0.00 0.03 0.03 14 1018.0
20260831233528 24 262 0.0 3.2 0.00 0.03 0.03 14 1018.4
20260831233022 24 202 0.0 3.2 0.00 0.03 0.03 12 1018.0
20260831232517 25 269 0.0 1.6 0.00 0.03 0.03 14 1018.0
20260831232011 25 197 0.0 1.6 0.00 0.03 0.03 12 1018.0
20260831231507 25 291 0.0 3.2 0.00 0.03 0.03 12 1018.4
20260831231502 25 302 0.0 3.2 0.00 0.03 0.03 11 1018.0
20260831230457 25 200 0.0 1.6 0.00 0.03 0.03 12 1018.4
20260831225950 25 149 0.0 1.6 0.00 0.03 0.03 13 1018.4
20260831225445 25 294 0.0 1.6 0.00 0.03 0.03 12 1018.7
20260831225440 25 162 0.0 4.8 0.00 0.03 0.03 12 1018.4
20260831224433 25 298 0.0 4.8 0.00 0.03 0.03 13 1018.4
20260831223927 25 269 0.0 3.2 0.00 0.03 0.03 12 1018.7
20260831223922 25 188 0.0 1.6 0.00 0.03 0.03 12 1018.4
20260831222917 25 85 0.0 3.2 0.00 0.03 0.03 11 1018.7
20260831222411 25 301 0.0 3.2 0.00 0.03 0.03 11 1018.7
20260831222406 25 225 0.0 1.6 0.00 0.03 0.03 10 1018.7
20260831221400 25 173 0.0 1.6 0.00 0.03 0.03 11 1018.7
20260831220854 25 201 0.0 3.2 0.00 0.03 0.03 12 1018.7
20260831220349 25 18 0.0 3.2 0.00 0.03 0.03 12 1018.7
20260831215843 25 350 0.0 1.6 0.00 0.03 0.03 11 1019.1
20260831215838 25 184 0.0 3.2 0.00 0.03 0.03 13 1019.4
20260831214833 25 255 0.0 3.2 0.00 0.03 0.03 15 1019.1
20260831214327 25 151 0.0 6.4 0.00 0.03 0.03 12 1019.4
20260831213822 25 263 0.0 6.4 0.00 0.03 0.03 13 1019.4
20260831213315 25 195 0.0 3.2 0.00 0.03 0.03 12 1019.4
20260831212810 25 187 0.0 3.2 0.00 0.03 0.03 12 1019.1
20260831212306 25 239 0.0 1.6 0.00 0.03 0.03 11 1019.7
20260831211759 25 303 0.0 3.2 0.00 0.03 0.03 12 1019.4
20260831211255 25 246 0.0 3.2 0.00 0.03 0.03 14 1019.7
20260831210748 25 328 0.0 6.4 0.00 0.03 0.03 11 1019.7
20260831210242 24 145 0.0 6.4 0.00 0.03 0.03 13 1019.7
20260831205737 24 205 0.0 4.8 0.00 0.03 0.03 12 1019.7
20260831205232 24 287 0.0 3.2 0.00 0.03 0.03 12 1019.4
20260831204726 24 207 0.0 3.2 0.00 0.03 0.03 12 1019.7
20260831204721 24 242 0.0 3.2 0.00 0.03 0.03 13 1019.7
20260831203714 24 182 0.0 1.6 0.00 0.03 0.03 15 1019.7
20260831203210 24 242 0.0 3.2 0.00 0.03 0.03 14 1019.4
20260831202705 24 214 0.0 3.2 0.00 0.03 0.03 14 1019.7
20260831202700 23 238 0.0 1.6 0.00 0.03 0.03 14 1019.7
20260831201652 23 187 0.0 1.6 0.00 0.03 0.03 15 1019.7
20260831201148 23 198 0.0 1.6 0.00 0.03 0.03 13 1019.7
20260831200642 23 268 0.0 1.6 0.00 0.03 0.03 13 1019.7
20260831200136 23 144 0.0 1.6 0.00 0.03 0.03 14 1019.7
20260831195631 23 224 0.0 3.2 0.00 0.03 0.03 16 1019.7
20260831195126 23 153 0.0 3.2 0.00 0.03 0.03 15 1019.4
20260831194619 23 301 0.0 3.2 0.00 0.03 0.03 15 1019.7
20260831194114 23 247 0.0 3.2 0.00 0.03 0.03 13 1019.7
20260831193609 22 204 0.0 1.6 0.00 0.03 0.03 15 1020.1
20260831193102 22 201 0.0 0.0 0.00 0.03 0.03 16 1019.7
20260831192557 22 262 0.0 0.0 0.00 0.03 0.03 19 1019.7
20260831192052 22 291 0.0 1.6 0.00 0.03 0.03 18 1020.1
20260831191546 22 155 0.0 1.6 0.00 0.03 0.03 19 1019.7
20260831191541 21 224 0.0 3.2 0.00 0.03 0.03 18 1020.1
20260831190535 21 312 0.0 3.2 0.00 0.03 0.03 19 1020.1
20260831190029 21 228 0.0 3.2 0.00 0.03 0.03 19 1020.1
20260831185524 21 214 0.0 1.6 0.00 0.03 0.03 21 1020.1
20260831185018 21 254 0.0 4.8 0.00 0.03 0.03 20 1020.4
20260831184514 20 250 0.0 4.8 0.00 0.03 0.03 21 1020.1
20260831184007 20 253 0.0 6.4 0.00 0.03 0.03 22 1020.4
20260831183502 20 251 0.0 6.4 0.00 0.03 0.03 23 1020.4
20260831182959 20 250 0.0 4.8 0.00 0.03 0.03 22 1020.1
20260831182954 20 157 0.0 4.8 0.00 0.03 0.03 21 1020.4
20260831181945 20 283 0.0 3.2 0.00 0.03 0.03 23 1020.1
20260831181441 20 248 0.0 3.2 0.00 0.03 0.03 23 1020.4
20260831180934 20 214 0.0 1.6 0.00 0.03 0.03 23 1020.1
20260831180429 20 240 0.0 4.8 0.00 0.03 0.03 24 1020.1
20260831175925 20 260 0.0 4.8 0.00 0.03 0.03 24 1020.4
20260831175920 19 159 0.0 3.2 0.00 0.03 0.03 25 1020.1
20260831174912 19 230 0.0 3.2 0.00 0.03 0.03 25 1020.1
20260831174408 19 293 0.0 1.6 0.00 0.03 0.03 23 1020.1
20260831173901 19 250 0.0 1.6 0.00 0.03 0.03 24 1020.1
20260831173357 18 211 0.0 1.6 0.00 0.03 0.03 24 1020.1
20260831172850 18 311 0.0 1.6 0.00 0.03 0.03 26 1019.7
20260831172345 18 245 0.0 1.6 0.00 0.03 0.03 27 1020.1
20260831171840 18 260 0.0 4.8 0.00 0.03 0.03 27 1020.1
20260831171334 18 204 0.0 4.8 0.00 0.03 0.03 29 1019.7
20260831170828 18 206 0.0 1.6 0.00 0.03 0.03 31 1019.7
20260831170324 18 316 0.0 1.6 0.00 0.03 0.03 32 1019.7
20260831170318 18 204 0.0 1.6 0.00 0.03 0.03 32 1019.7
20260831165312 18 231 0.0 1.6 0.00 0.03 0.03 32 1019.7
20260831164806 18 229 0.0 3.2 0.00 0.03 0.03 32 1019.7
20260831164757 17 243 0.0 1.6 0.00 0.03 0.03 32 1019.7
20260831164401 18 344 0.0 3.2 0.00 0.03 0.03 32 1019.7
20260831163252 17 215 0.0 0.0 0.00 0.03 0.03 32 1019.7
20260831162744 17 341 0.0 0.0 0.00 0.03 0.03 32 1019.7
20260831162240 17 243 0.0 1.6 0.00 0.03 0.03 32 1019.4
20260831161733 17 286 0.0 1.6 0.00 0.03 0.03 32 1019.4
20260831161227 17 272 0.0 1.6 0.00 0.03 0.03 32 1019.4
20260831160722 16 248 0.0 1.6 0.00 0.03 0.03 30 1019.4
20260831160217 16 217 0.0 0.0 0.00 0.03 0.03 31 1019.4
20260831160211 16 255 0.0 1.6 0.00 0.03 0.03 31 1019.4
20260831155206 16 187 0.0 1.6 0.00 0.03 0.03 31 1019.4
20260831154700 16 233 0.0 1.6 0.00 0.03 0.03 31 1019.4
20260831154155 16 223 0.0 1.6 0.00 0.03 0.03 32 1019.4
20260831153649 16 251 0.0 0.0 0.00 0.03 0.03 32 1019.4
20260831153144 16 317 0.0 0.0 0.00 0.03 0.03 32 1019.1
20260831153135 16 210 0.0 0.0 0.00 0.03 0.03 32 1019.4
20260831152738 16 280 0.0 0.0 0.00 0.03 0.03 32 1019.1
20260831151628 16 196 0.0 0.0 0.00 0.03 0.03 32 1019.4
20260831151622 16 269 0.0 0.0 0.00 0.03 0.03 32 1019.1
20260831150616 16 278 0.0 0.0 0.00 0.03 0.03 33 1019.1
20260831150110 16 280 0.0 0.0 0.00 0.03 0.03 33 1019.4
20260831145606 16 293 0.0 0.0 0.00 0.03 0.03 33 1019.1
20260831145601 16 238 0.0 0.0 0.00 0.03 0.03 33 1019.1
20260831144554 16 155 0.0 1.6 0.00 0.03 0.03 34 1019.1
20260831144048 16 229 0.0 1.6 0.00 0.03 0.03 33 1019.1
20260831143542 16 286 0.0 1.6 0.00 0.03 0.03 33 1018.7
20260831143038 16 207 0.0 1.6 0.00 0.03 0.03 35 1019.1
20260831142532 16 210 0.0 1.6 0.00 0.03 0.03 35 1018.7
20260831142026 16 310 0.0 0.0 0.00 0.03 0.03 35 1018.7
20260831141520 16 314 0.0 1.6 0.00 0.03 0.03 35 1018.7
20260831141015 16 225 0.0 1.6 0.00 0.03 0.03 35 1018.7
20260831140510 16 189 0.0 0.0 0.00 0.03 0.03 35 1018.7
20260831140505 16 273 0.0 0.0 0.00 0.03 0.03 35 1018.4
20260831135459 16 285 0.0 1.6 0.00 0.03 0.03 35 1018.4
20260831134953 16 204 0.0 1.6 0.00 0.03 0.03 34 1018.4
20260831134448 16 205 0.0 0.0 0.00 0.03 0.03 34 1018.4
20260831133942 16 250 0.0 0.0 0.00 0.03 0.03 33 1018.0
20260831133436 16 251 0.0 0.0 0.00 0.03 0.03 33 1018.4
20260831132931 16 241 0.0 0.0 0.00 0.03 0.03 33 1018.0
20260831132425 16 203 0.0 0.0 0.00 0.03 0.03 34 1018.0
20260831131920 16 234 0.0 0.0 0.00 0.03 0.03 34 1018.0
20260831131414 16 222 0.0 0.0 0.00 0.03 0.03 34 1018.0
20260831130908 16 248 0.0 0.0 0.00 0.03 0.03 33 1018.0
20260831130406 16 245 0.0 1.6 0.00 0.03 0.03 33 1018.0
20260831130359 16 289 0.0 1.6 0.00 0.03 0.03 33 1018.0
20260831125352 16 175 0.0 0.0 0.00 0.03 0.03 33 1017.7
20260831124846 16 197 0.0 0.0 0.00 0.03 0.03 33 1018.0
20260831124841 16 198 0.0 0.0 0.00 0.03 0.03 33 1018.0
20260831123836 16 233 0.0 0.0 0.00 0.03 0.03 33 1017.7
20260831123330 16 255 0.0 0.0 0.00 0.03 0.03 33 1018.0
20260831122920 15 196 0.0 1.6 0.00 0.03 0.03 33 1018.0
20260831122824 16 218 0.0 0.0 0.00 0.03 0.03 33 1017.7
20260831122816 15 242 0.0 1.6 0.00 0.03 0.03 33 1017.7
20260831121308 15 164 0.0 0.0 0.00 0.03 0.03 33 1018.0
20260831120802 15 181 0.0 0.0 0.00 0.03 0.03 33 1017.7
20260831120258 14 210 0.0 0.0 0.00 0.03 0.03 33 1017.7
20260831120252 14 276 0.0 0.0 0.00 0.03 0.03 39 1017.7
20260831115247 14 324 0.0 0.0 0.00 0.03 0.03 41 1017.4
20260831114740 14 291 0.0 0.0 0.00 0.03 0.03 41 1017.7
20260831114234 14 214 0.0 0.0 0.00 0.03 0.03 41 1017.7
20260831113729 14 210 0.0 0.0 0.00 0.03 0.03 41 1017.7
20260831113223 14 210 0.0 0.0 0.00 0.03 0.03 41 1017.7
20260831112718 14 239 0.0 0.0 0.00 0.03 0.03 41 1017.7
20260831112213 14 189 0.0 0.0 0.00 0.03 0.03 41 1017.7
20260831111707 14 189 0.0 0.0 0.00 0.03 0.03 41 1017.4
20260831111201 14 222 0.0 0.0 0.00 0.03 0.03 41 1017.4
20260831111156 15 222 0.0 0.0 0.00 0.03 0.03 41 1017.4
20260831110151 15 227 0.0 0.0 0.00 0.03 0.03 40 1017.7
20260831105645 15 215 0.0 0.0 0.00 0.03 0.03 40 1017.4
20260831105139 15 215 0.0 0.0 0.00 0.03 0.03 40 1017.4
20260831104633 15 227 0.0 0.0 0.00 0.03 0.03 39 1017.4
20260831104128 15 227 0.0 0.0 0.00 0.03 0.03 38 1017.4
20260831103623 15 227 0.0 0.0 0.00 0.03 0.03 39 1017.4
20260831103117 15 206 0.0 0.0 0.00 0.03 0.03 39 1017.4
20260831102612 16 241 0.0 0.0 0.00 0.03 0.03 39 1017.4
20260831102109 16 241 0.0 0.0 0.00 0.03 0.03 38 1017.4
20260831102104 16 202 0.0 0.0 0.00 0.03 0.03 38 1017.4
20260831101055 16 264 0.0 0.0 0.00 0.03 0.03 37 1017.4
20260831100550 16 16 0.0 0.0 0.00 0.03 0.03 37 1017.4
20260831100044 16 216 0.0 0.0 0.00 0.03 0.03 37 1017.4
20260831095539 16 185 0.0 0.0 0.00 0.03 0.03 37 1017.4
20260831095033 16 245 0.0 0.0 0.00 0.03 0.03 36 1017.4
20260831094527 16 234 0.0 0.0 0.00 0.03 0.03 36 1017.4
20260831094022 16 236 0.0 0.0 0.00 0.03 0.03 36 1017.4
20260831093517 16 287 0.0 0.0 0.00 0.03 0.03 36 1017.0
20260831093011 17 258 0.0 0.0 0.00 0.03 0.03 36 1017.4
20260831092505 17 243 0.0 0.0 0.00 0.03 0.03 35 1017.4
20260831092000 17 208 0.0 0.0 0.00 0.03 0.03 35 1017.4
20260831091454 18 290 0.0 0.0 0.00 0.03 0.03 33 1017.4
20260831090949 18 3 0.0 0.0 0.00 0.03 0.03 33 1017.4
20260831090445 18 243 0.0 0.0 0.00 0.03 0.03 32 1017.4
20260831090440 18 312 0.0 0.0 0.03 0.03 0.03 32 1017.4
20260831085433 18 257 0.0 0.0 0.03 0.03 0.03 29 1017.4
20260831084928 19 225 0.0 0.0 0.03 0.03 0.03 28 1017.4
20260831084423 19 213 0.0 0.0 0.03 0.03 0.03 26 1017.4
20260831084418 19 196 0.0 0.0 0.03 0.03 0.03 26 1017.4
20260831083411 20 227 0.0 0.0 0.03 0.03 0.03 26 1017.4
20260831082905 20 215 0.0 1.6 0.03 0.03 0.03 26 1017.4
20260831082359 20 270 0.0 1.6 0.03 0.03 0.03 26 1017.4
20260831081854 20 256 0.0 0.0 0.03 0.03 0.03 26 1017.4
20260831081849 20 216 0.0 0.0 0.03 0.03 0.03 28 1017.4
20260831080843 20 281 0.0 0.0 0.03 0.03 0.03 27 1017.4
20260831080337 20 267 0.0 0.0 0.03 0.03 0.03 27 1017.7
20260831075831 20 197 0.0 0.0 0.00 0.00 0.00 27 1017.4
20260831075326 21 232 0.0 0.0 0.00 0.00 0.00 27 1017.4
20260831074820 21 245 0.0 0.0 0.00 0.00 0.00 26 1017.4
20260831074314 21 237 0.0 0.0 0.00 0.00 0.00 26 1017.4
20260831073809 21 214 0.0 0.0 0.00 0.00 0.00 24 1017.4
20260831073759 21 207 0.0 3.2 0.00 0.00 0.00 23 1017.4
20260831073403 21 180 0.0 3.2 0.00 0.00 0.00 24 1017.4
20260831072254 21 264 0.0 0.0 0.00 0.00 0.00 22 1017.4
20260831072248 21 176 0.0 0.0 0.00 0.00 0.00 22 1017.4
20260831071247 21 228 0.0 1.6 0.00 0.00 0.00 22 1017.4
20260831070735 21 250 0.0 1.6 0.00 0.00 0.00 21 1017.4
20260831070230 21 237 0.0 0.0 0.00 0.00 0.00 21 1017.4
20260831065724 21 156 0.0 0.0 0.00 0.00 0.00 21 1017.4
20260831065219 20 241 0.0 0.0 0.00 0.00 0.00 21 1017.4
20260831064713 20 231 0.0 0.0 0.00 0.00 0.00 21 1017.4
20260831064704 20 222 0.0 0.0 0.00 0.00 0.00 22 1017.4
20260831064309 20 249 0.0 0.0 0.00 0.00 0.00 22 1017.7
20260831063156 20 268 0.0 0.0 0.00 0.00 0.00 23 1017.7
20260831062651 20 235 0.0 0.0 0.00 0.00 0.00 25 1017.7
20260831062146 20 219 0.0 0.0 0.00 0.00 0.00 25 1017.4
20260831061640 20 225 0.0 0.0 0.00 0.00 0.00 24 1017.7
20260831061135 20 244 0.0 0.0 0.00 0.00 0.00 23 1017.7
20260831060629 20 232 0.0 0.0 0.00 0.00 0.00 23 1017.7
20260831060123 20 226 0.0 0.0 0.00 0.00 0.00 23 1017.7
20260831055619 20 244 0.0 0.0 0.00 0.00 0.00 24 1017.4
20260831055114 20 233 0.0 0.0 0.00 0.00 0.00 23 1017.7
20260831055108 20 235 0.0 0.0 0.00 0.00 0.00 23 1017.7
20260831054101 20 235 0.0 0.0 0.00 0.00 0.00 23 1017.7
20260831053556 20 235 0.0 0.0 0.00 0.00 0.00 23 1017.7
20260831053051 20 238 0.0 0.0 0.00 0.00 0.00 24 1017.7
20260831053037 20 242 0.0 0.0 0.00 0.00 0.00 25 1017.7
20260831052656 20 237 0.0 0.0 0.00 0.00 0.00 25 1017.7
20260831052641 20 226 0.0 0.0 0.00 0.00 0.00 24 1017.7